Location: Brachbach
(49.1847°N, 9.7240°E)
Time: 05:10:29
(UTC+00:00)

STARS - Pass Details

Date: 14 March 2026
Orbit: 575 x 588 km, 98.2° (Epoch: 15 April)

Event Time Altitude Azimuth Distance (km) Brightness Sun altitude
Rises 02:09:17 0° 7° (N) 2,803 ? -32.4°
Reaches altitude 10° 02:11:33 10° 360° (N) 1,898 ? -32.1°
Enters shadow 02:12:04 13° 357° (N) 1,701 ? -32.1°
